This is the latest recevied weather packets stored in our database for station/object KG5APU. If no packets are shown the sender has not sent any weather packets the latest 10 day(s).
| Time | Temp. | Humidity | Pressure | Rain* | Wind** | Luminosity | Snow |
|---|---|---|---|---|---|---|---|
| 1777857178 | 23.33° C | 44% | 1016.2 hPa | 0 mm | - | 2 W/m² | - |
| 1777856575 | 23.89° C | 44% | 1016.2 hPa | 0 mm | - | 5 W/m² | - |
| 1777855975 | 23.89° C | 44% | 1016.2 hPa | 0 mm | - | 10 W/m² | - |
| 1777855370 | 24.44° C | 43% | 1016 hPa | 0 mm | - | 16 W/m² | - |
| 1777854769 | 25° C | 44% | 1016.2 hPa | 0 mm | - | 36 W/m² | - |
| 1777854168 | 25.56° C | 43% | 1016.2 hPa | 0 mm | - | 52 W/m² | - |
| 1777853569 | 25.56° C | 42% | 1016.2 hPa | 0 mm | - | 72 W/m² | - |
| 1777852968 | 25.56° C | 42% | 1016.3 hPa | 0 mm | - | 87 W/m² | - |
| 1777852363 | 25.56° C | 40% | 1016.4 hPa | 0 mm | - | 105 W/m² | - |
| 1777851759 | 26.11° C | 40% | 1016.2 hPa | 0 mm | - | 115 W/m² | - |
| 1777851157 | 26.11° C | 41% | 1016.4 hPa | 0 mm | - | 143 W/m² | - |
| 1777850558 | 26.67° C | 41% | 1016.4 hPa | 0 mm | - | 180 W/m² | - |
| 1777849952 | 27.22° C | 41% | 1016.3 hPa | 0 mm | - | 209 W/m² | - |
| 1777849352 | 26.67° C | 35% | 1016.7 hPa | 0 mm | - | 240 W/m² | - |
| 1777848749 | 27.22° C | 35% | 1016.5 hPa | 0 mm | - | 270 W/m² | - |
| 1777848144 | 27.78° C | 36% | 1016.6 hPa | 0 mm | - | 302 W/m² | - |
| 1777847545 | 27.22° C | 35% | 1016.9 hPa | 0 mm | - | 344 W/m² | - |
| 1777846945 | 27.22° C | 38% | 1016.8 hPa | 0 mm | - | 369 W/m² | - |
| 1777846340 | 27.78° C | 36% | 1016.9 hPa | 0 mm | - | 412 W/m² | - |
| 1777845739 | 27.22° C | 37% | 1016.9 hPa | 0 mm | - | 438 W/m² | - |
| 1777845138 | 27.22° C | 35% | 1016.8 hPa | 0 mm | - | 471 W/m² | - |
| 1777844538 | 27.22° C | 35% | 1017.2 hPa | 0 mm | - | 500 W/m² | - |
| 1777843933 | 28.33° C | 33% | 1017.2 hPa | 0 mm | - | 531 W/m² | - |
| 1777843328 | 27.78° C | 35% | 1017.5 hPa | 0 mm | - | 566 W/m² | - |
| 1777842727 | 27.78° C | 35% | 1017.8 hPa | 0 mm | - | 597 W/m² | - |
* Rain latest hour (hover to see other rain measurements)
** Current wind speed in m/s (hover to see current wind gust speed)